CW6421 Weather Reports


time (UTC)temp
F
wind
direction
speed
knots
gust
knots
rain 1hr
in
rain 24hr
in
rain mn
in
humidity
%
barometer
mb
20260507171530 51 155 3.5 8.7 0.00 0.00 0.00 79 1016.6
20260507170528 51 155 4.3 9.6 0.00 0.00 0.00 79 1016.5
20260507165526 51 159 2.6 9.6 0.00 0.00 0.00 78 1016.5
20260507164530 51 124 5.2 9.6 0.00 0.00 0.00 78 1016.5
20260507163526 51 120 4.3 11.3 0.00 0.00 0.00 78 1016.5
20260507162528 51 117 5.2 10.4 0.00 0.00 0.00 78 1016.5
20260507161530 51 121 6.1 9.6 0.00 0.00 0.00 78 1016.5
20260507160526 51 120 7.0 12.2 0.00 0.00 0.00 78 1016.1
20260507155527 51 117 6.1 13.0 0.00 0.00 0.00 78 1016.1
20260507154530 52 98 5.2 13.9 0.00 0.00 0.00 78 1016.1
20260507153528 52 84 7.0 11.3 0.00 0.00 0.00 78 1016.1
20260507152526 52 95 6.1 12.2 0.00 0.00 0.00 78 1016.1
20260507151529 52 92 7.8 13.0 0.00 0.00 0.00 78 1016.1
20260507150529 52 96 7.8 14.8 0.00 0.00 0.00 78 1015.7
20260507144530 52 71 7.0 13.9 0.00 0.00 0.00 78 1015.7
20260507143528 52 79 7.0 15.6 0.00 0.00 0.00 79 1015.7
20260507142527 51 73 7.8 16.5 0.00 0.00 0.00 79 1015.7
20260507141531 51 74 7.8 14.8 0.00 0.00 0.00 79 1015.7
20260507140527 51 77 8.7 14.8 0.00 0.00 0.00 80 1015.5
20260507135528 51 67 7.0 13.9 0.00 0.00 0.00 80 1015.5
20260507134530 51 80 9.6 13.9 0.00 0.00 0.00 80 1015.5
20260507133527 51 69 7.8 13.0 0.00 0.00 0.00 80 1015.5
20260507132527 50 66 7.8 13.9 0.00 0.00 0.00 80 1015.5
20260507131529 50 53 8.7 14.8 0.00 0.00 0.00 80 1015.5
20260507130528 50 70 10.4 13.0 0.00 0.00 0.00 80 1015.1
20260507125525 50 61 9.6 13.0 0.00 0.00 0.00 80 1015.1
20260507124529 50 40 9.6 13.0 0.00 0.00 0.00 80 1015.1
20260507123527 50 21 8.7 13.0 0.00 0.00 0.00 80 1015.1
20260507122527 50 38 9.6 13.0 0.00 0.00 0.00 80 1015.1
20260507121530 50 50 7.8 14.8 0.00 0.00 0.00 80 1015.1
20260507120527 50 60 7.0 14.8 0.00 0.00 0.00 80 1014.9
20260507115526 50 47 6.1 14.8 0.00 0.00 0.00 81 1014.9
20260507114529 49 48 9.6 15.6 0.00 0.00 0.00 81 1014.9
20260507113527 49 45 10.4 16.5 0.00 0.00 0.00 82 1014.9
20260507111530 49 58 8.7 15.6 0.00 0.00 0.00 82 1014.9
20260507110527 49 59 7.8 16.5 0.00 0.00 0.00 83 1014.5
20260507105527 49 52 7.0 16.5 0.00 0.01 0.00 83 1014.5
20260507104529 49 60 10.4 14.8 0.00 0.01 0.00 83 1014.5
20260507102527 49 50 8.7 16.5 0.00 0.02 0.00 83 1013.6
20260507101531 48 46 10.4 15.6 0.00 0.03 0.00 83 1013.6
20260507100527 49 50 9.6 15.6 0.00 0.04 0.00 83 1013.6
20260507094530 49 63 10.4 15.6 0.00 0.05 0.00 83 1013.6
20260507092527 49 61 10.4 17.4 0.00 0.06 0.00 83 1013.6
20260507091530 49 66 10.4 14.8 0.00 0.07 0.00 83 1013.6
20260507090527 48 59 9.6 15.6 0.00 0.08 0.00 84 1013.0
20260507085528 48 50 10.4 19.1 0.00 0.09 0.00 84 1013.0
20260507083527 48 65 13.0 19.1 0.00 0.12 0.00 84 1013.0
20260507082527 48 69 11.3 17.4 0.00 0.14 0.00 84 1013.0
20260507080527 48 51 13.0 15.6 0.00 0.16 0.00 85 1012.7
20260507073527 47 45 8.7 14.8 0.00 0.19 0.00 85 1012.7
20260507071529 47 59 9.6 13.9 0.00 0.21 0.00 85 1012.7
20260507070527 47 54 8.7 13.9 0.00 0.22 0.00 85 1012.0
20260507065526 47 58 9.6 14.8 0.00 0.23 0.00 85 1012.0
20260507064529 47 24 8.7 15.6 0.00 0.23 0.00 85 1012.0
20260507063526 47 30 9.6 15.6 0.00 0.24 0.00 85 1012.0
20260507062526 47 26 9.6 14.8 0.00 0.25 0.00 85 1012.0
20260507061530 47 42 7.8 15.6 0.00 0.26 0.00 86 1012.0
20260507060527 47 33 7.8 13.9 0.00 0.26 0.00 86 1011.5
20260507055526 47 37 7.0 14.8 0.00 0.27 0.00 86 1011.5
20260507054529 47 36 7.0 16.5 0.00 0.27 0.00 86 1011.5
20260507053526 47 26 9.6 14.8 0.00 0.28 0.00 86 1011.5
20260507052526 47 38 7.8 14.8 0.00 0.29 0.00 86 1011.5
20260507051529 46 57 9.6 13.9 0.00 0.29 0.00 86 1011.5
20260507050528 46 66 8.7 13.0 0.00 0.30 0.00 86 1011.0
20260507045527 46 52 7.8 13.0 0.00 0.31 0.00 86 1011.0
20260507043526 46 72 8.7 12.2 0.00 0.34 0.00 86 1011.0
20260507042528 46 81 8.7 13.9 0.00 0.35 0.00 86 1011.0
20260507041530 46 45 8.7 14.8 0.00 0.36 0.00 86 1011.0
20260507035527 46 46 9.6 14.8 0.00 0.39 0.00 86 1010.7
20260507034528 46 42 7.8 14.8 0.00 0.40 0.00 86 1010.7
20260507033528 46 42 7.8 13.0 0.00 0.41 0.00 86 1010.7
20260507031528 46 68 10.4 14.8 0.00 0.44 0.00 86 1010.7
20260507025527 46 66 11.3 14.8 0.00 0.48 0.00 86 1010.3
20260507024529 46 58 6.1 13.9 0.00 0.50 0.00 86 1010.3
20260507023526 46 54 7.0 14.8 0.00 0.52 0.00 86 1010.3
20260507022525 46 53 6.1 15.6 0.00 0.54 0.00 86 1010.3
20260507021530 46 55 8.7 14.8 0.00 0.56 0.00 86 1010.3
20260507015526 46 45 8.7 14.8 0.00 0.59 0.00 86 1010.1
20260507014528 46 37 9.6 15.6 0.00 0.60 0.00 86 1010.1
20260507012526 47 21 9.6 14.8 0.00 0.61 0.00 86 1010.1
20260507011528 47 49 7.8 16.5 0.00 0.62 0.00 86 1010.1
20260507010526 47 42 8.7 17.4 0.00 0.63 0.00 86 1009.8
20260507005526 47 57 10.4 14.8 0.00 0.63 0.00 86 1009.8
20260507004529 47 45 11.3 15.6 0.00 0.64 0.00 86 1009.8
20260507003526 47 44 11.3 15.6 0.00 0.64 0.00 86 1009.8
20260507002526 47 30 11.3 14.8 0.00 0.64 0.00 86 1009.8
20260507001529 47 41 11.3 17.4 0.00 0.64 0.00 86 1009.8
20260506235526 47 40 11.3 19.1 0.00 0.65 0.00 86 1009.3
20260506234529 47 45 13.0 17.4 0.00 0.65 0.00 86 1009.3
20260506233526 48 44 12.2 19.1 0.00 0.65 0.00 86 1009.3
20260506231529 48 30 12.2 17.4 0.00 0.65 0.00 86 1009.3
20260506230527 49 39 12.2 13.0 0.00 0.65 0.00 86 1008.8
20260506225527 49 37 12.2 13.9 0.00 0.65 0.00 86 1008.8
20260506224529 50 22 13.9 13.9 0.00 0.65 0.00 87 1008.8
20260506223527 50 26 12.2 14.8 0.00 0.65 0.00 87 1008.8
20260506222527 51 19 12.2 15.6 0.00 0.65 0.00 87 1008.7
20260506221528 51 34 8.7 16.5 0.00 0.65 0.00 87 1008.7
20260506220528 51 45 7.0 16.5 0.00 0.65 0.00 87 1008.7
20260506215527 51 37 6.1 17.4 0.00 0.65 0.00 87 1008.7
20260506214529 51 33 7.8 14.8 0.00 0.65 0.00 87 1008.7
20260506213530 51 42 7.0 17.4 0.00 0.65 0.00 87 1008.7
20260506212526 51 41 6.1 16.5 0.00 0.65 0.00 87 1008.7
20260506211530 51 59 10.4 14.8 0.00 0.65 0.00 88 1008.7
20260506210529 52 66 10.4 13.9 0.00 0.65 0.00 88 1008.5
20260506205528 52 70 8.7 13.0 0.00 0.65 0.00 88 1008.5
20260506204530 52 52 7.8 15.6 0.00 0.65 0.00 88 1008.5
20260506202526 52 50 7.0 15.6 0.00 0.65 0.00 89 1008.5
20260506201528 52 27 7.0 14.8 0.00 0.65 0.00 89 1008.5
20260506200528 52 29 6.1 14.8 0.00 0.65 0.00 89 1008.0
20260506195527 52 22 6.1 14.8 0.00 0.65 0.00 89 1008.0
20260506193526 52 53 7.8 14.8 0.00 0.65 0.00 88 1008.0
20260506192526 52 56 10.4 14.8 0.00 0.65 0.00 88 1008.0
20260506190527 52 63 7.0 13.0 0.00 0.65 0.00 88 1007.3
20260506185527 53 50 7.8 13.0 0.00 0.65 0.00 88 1007.3
20260506184530 53 41 10.4 13.0 0.00 0.65 0.00 88 1007.3
20260506183527 53 45 9.6 12.2 0.00 0.65 0.00 88 1007.3
20260506182526 53 32 7.8 13.9 0.00 0.65 0.00 88 1007.3
20260506181528 53 46 7.0 13.0 0.00 0.65 0.00 88 1007.3
20260506180526 53 48 7.0 11.3 0.00 0.65 0.00 88 1007.1
20260506175527 53 40 9.6 13.0 0.00 0.65 0.00 88 1007.1
20260506174530 54 60 8.7 13.0 0.00 0.65 0.00 89 1007.1
20260506173526 54 42 10.4 13.0 0.00 0.65 0.00 89 1007.1
20260506172527 54 48 8.7 12.2 0.00 0.65 0.00 88 1007.1